Location: Asheville, NC
(35.6000°N, 82.5500°W)
Time: 13:09:30
(UTC-05:00)

Tiangong 1 - Pass Details

Date: 12 February 2018
Orbit: 247 x 268 km, 42.8° (Epoch: 22 February)

Event Time Altitude Azimuth Distance (km) Brightness Sun altitude
Exits shadow 06:09:45 15° 357° (N) 823 2.6 -14.8°
Drops below altitude 10° 06:11:06 10° 33° (NNE) 1,040 3.6 -14.6°
Sets 06:13:29 0° 59° (ENE) 1,853 5.4 -14.1°
